Погода в Вяжах-Заверхе

Россия / Орловская область     53°01′18″N   36°57′06″E
темп.,
°C
ветер,
м/с
пор.,
м/с
влажн.,
%
обл.,
%
осадки,
мм/ч
давл.,
гПа
погр.,
м
6 мая, чт
чт600:00+11ю5137470 0.0 1011386
03:00+10ююз51376100 0.0 1010347
06:00+10ю61476100 0.0 1009493
09:00+13ююз71374100 0.0 10091055
12:00+14ю91664100 0.4 10081959
15:00+11ююз71669100 0.7 10081231
18:00+11юз61372100 0.1 1008988
21:00+8з5993100 1.6 1010608
7 мая, пт
пт700:00+7зюз3591100 1.9 1011140
03:00+7з4893100 2.1 1012270
06:00+6з248816 0.0 1013109
09:00+10з466570 0.0 1014756
12:00+13з46435 0.0 10151770
15:00+14юз454091 0.0 10142025
18:00+13ююз4756100 0.0 1014541
21:00+10ююв41163100 0.0 1013301
8 мая, сб
сб800:00+9ююв61562100 0.0 1012429
03:00+10ююв81765100 0.0 1010744
06:00+9ююв91987100 3.7 1007887
09:00+9ююв91794100 9.9 1005734
12:00+10ю81595100 4.6 1004833
15:00+9зюз61191100 6.3 1006674
18:00+10юз71177100 0.1 10071094
21:00+5з81393100 0.2 1010648
9 мая, вс
вс900:00+5зсз71287100 0.1 1013841
03:00+5зсз6127945 0.1 1015854
06:00+2з410920 0.0 1017379
09:00+7сз68716 0.0 1019952
12:00+10сз6757100 0.1 10201966
15:00+10ссз795551 0.2 10211975
18:00+10ссз59605 0.0 10231685
21:00+6ссз22700 0.0 102516
10 мая, пн
пн1000:00+4сз33770 0.0 102728
03:00+3ссз34775 0.0 102952
06:00+3ссз36795 0.0 1031118
09:00+10ссв45605 0.0 1031518
12:00+13ссв34488 0.0 10311581
15:00+14ссв44475 0.0 10301680
18:00+13ссв46591 0.0 1030534
21:00+8всв33751 0.0 103125